Weather in Meizhou

China     24°17′13″N   116°05′25″E
temp.,
°C
wind,
m/s
gust,
m/s
humid.,
%
clouds,
%
prec.,
mm/h
press.,
hPa
HPBL,
m
19 september, sun
sun1923:00+25se12865 0.0 101340
02:00+23ese11923 0.0 101216
05:00+23e11950 0.0 101311
08:00+27ese11740 0.0 1013399
11:00+33s23488 0.0 10121571
14:00+35ssw344134 0.0 10092254
17:00+31sse365731 0.0 1009296
20:00+27s11734 0.0 101118
20 september, mon
mon2023:00+25sse11820 0.0 101218
02:00+24sse11880 0.0 101111
05:00+23se11923 0.0 101111
08:00+27ese007461 0.0 1013368
11:00+33sw225197 0.0 10121363
14:00+34wsw324490 0.0 10092095
17:00+34wsw124425 0.0 10081589
20:00+27ssw1173100 0.0 101011
21 september, tue
tue2123:00+26s11815 0.0 101111
02:00+25sw118871 0.1 101011
05:00+24s119586 3.0 101015
08:00+26sw018553 3.1 1012260
11:00+34wsw11515 0.0 10101294
14:00+35wsw324221 0.0 10072277
17:00+34w234664 0.0 1006743
20:00+29ene256594 0.3 1009149
22 september, wed
wed2223:00+25ne11909 1.1 101034
02:00+24ene119491 1.2 101018
05:00+24ene1194100 0.0 101016
08:00+26ene118277 0.0 1012305
11:00+35ese124611 0.0 10121436
14:00+36s3335100 0.0 10092372
17:00+33s354868 0.0 1009814
20:00+27se2476100 0.0 101284
23 september, thu
thu2323:00+25se128897 0.1 101332
02:00+24se119430 0.1 101312
05:00+23e119512 0.0 101319
08:00+27ene127510 0.0 1014433
11:00+33sse24465 0.0 10141771
14:00+35s44387 0.0 10112455
17:00+32s454823 0.0 10111086
20:00+26se23742 0.0 101361